Regional Weather Roundup
Issued by NWS Raleigh/Durham, NC

Home | Current Version | Previous Version | Text Only | Print | Product List | Glossary On
Versions: 1 2 3 4 5 6 7 8 9 10 11 12 13 14 15 16 17 18 19 20 21 22 23 24 25 26 27 28 29 30 31 32 33 34 35 36 37 38 39 40 41 42 43 44 45 46 47 48 49 50
000
ASUS42 KRAH 280810
RWRRAH
NORTH CAROLINA WEATHER ROUNDUP
NATIONAL WEATHER SERVICE RALEIGH NC
300 AM EST FRI NOV 28 2014

NOTE: "FAIR" INDICATES FEW OR NO CLOUDS BELOW 12,000 FEET WITH NO
SIGNIFICANT WEATHER AND/OR OBSTRUCTIONS TO VISIBILITY.

NCZ001-053-055-056-065-067-280900-
WESTERN NORTH CAROLINA

CITY           SKY/WX    TMP DP  RH WIND       PRES   REMARKS
ASHEVILLE      CLOUDY    27  14  58 N15G21    30.28S WCI  15
JEFFERSON      CLOUDY    22  12  64 NW13G20   30.18S WCI  10
MORGANTON      MOCLDY    31  19  60 NW6       30.35S WCI  26
HICKORY        PTCLDY    29  19  66 SW5       30.30S WCI  24
RUTHERFORDTON  MOCLDY    29  17  60 CALM      30.32S
MOUNT AIRY     CLOUDY    34  19  53 NW6       30.30S WCI  29
BOONE          FLURRIES  22  14  70 NW12G22   30.20R WCI  11
$$

NCZ021-022-025-041-071-084-088-280900-
CENTRAL NORTH CAROLINA

CITY           SKY/WX    TMP DP  RH WIND       PRES   REMARKS
CHARLOTTE      PTCLDY    31  20  63 NW6       30.32S WCI  25
GREENSBORO     MOCLDY    28  19  69 W7        30.28R WCI  21
WINSTON-SALEM  PTCLDY    32  16  51 W6        30.30R WCI  26
RALEIGH-DURHAM CLEAR     34  20  56 NW5       30.29R WCI  30
FORT BRAGG     CLEAR     33  24  70 NW7       30.29R WCI  26
FAYETTEVILLE   CLEAR     35  24  64 NW7       30.29R WCI  29
BURLINGTON     CLEAR     32  18  56 W8        30.28R WCI  25
LAURINBURG     CLEAR     32  25  75 NW5       30.31R WCI  27
$$

NCZ011-015-027-028-043-044-047-080-103-280900-
NORTHEASTERN NORTH CAROLINA

CITY           SKY/WX    TMP DP  RH WIND       PRES   REMARKS
ROCKY MT-WILSO CLEAR     34  23  64 NW9       30.27R WCI  27
GREENVILLE     MOCLDY    34  28  80 NW3       30.26R
WASHINGTON     CLEAR     33  26  76 NW3       30.24R
ELIZABETH CITY MOCLDY    40  32  73 NW8       30.20S WCI  34
MANTEO         CLEAR     40  30  68 NW12G22   30.18S WCI  33
CAPE HATTERAS  MOCLDY    41  32  70 NW13G20   30.18R
$$

NCZ078-087-090-091-093-098-101-280900-
SOUTHEASTERN NORTH CAROLINA

CITY           SKY/WX    TMP DP  RH WIND       PRES   REMARKS
LUMBERTON      CLEAR     34  28  79 NW7       30.30R WCI  28
GOLDSBORO      CLEAR     35  28  75 NW3       30.26R
KINSTON        PTCLDY    34  25  69 NW6       30.27R WCI  29
KENANSVILLE    CLEAR     33  28  83 NW3       30.29R
NEW BERN       CLEAR     37  26  64 NW5       30.25R WCI  33
CHERRY POINT   CLEAR     37  26  64 NW13      30.24R WCI  29
BEAUFORT       CLEAR     38  28  67 N15       30.22R WCI  29
JACKSONVILLE   CLEAR     35  27  72 NW8       30.26R WCI  29
WILMINGTON     CLEAR     34  30  85 NW7       30.27R WCI  28
$$



USA.gov is the U.S. government's official web portal to all federal, state and local government web resources and services.